Alexandroupoli, Greece

12:05 PM EEST on August 20, 2017 (GMT +0300)
Dimokritos

Weather History for LGAL - December, 2012

Change the Weather History Date:

Sunday, December 30, 2012

  Actual Average Record
Temperature  
Mean Temperature 42 °F -  
Max Temperature 46 °F 47 °F 57 °F (1996)
Min Temperature 39 °F 34 °F 19 °F (2008)
Degree Days  
Heating Degree Days 22    
Moisture  
Dew Point 31 °F    
Average Humidity 63    
Maximum Humidity 71    
Minimum Humidity 50    
Precipitation  
Precipitation 0.00 in 0.08 in - ()
Sea Level Pressure  
Sea Level Pressure 30.31 in    
Wind  
Wind Speed - ()    
Max Wind Speed -    
Max Gust Speed -    
Visibility 6.0 miles    
Events      
Averages and records for this station are not official NWS values.
T = Trace of Precipitation, MM = Missing Value Source: Averaged Metar Reports

Daily Weather History Graph

Daily Weather History Graph

Search for Another Location

Airport or City:

Trip Planner

Search our weather history database for the weather conditions in past years. The results will help you decide how hot, cold, wet, or windy it might be!

Date:

Astronomy

Dec. 30, 2012 Rise Set
Actual Time 7:40 AM EET 4:57 PM EET
Civil Twilight 7:09 AM EET 5:28 PM EET
Nautical Twilight 6:35 AM EET 6:03 PM EET
Astronomical Twilight 6:01 AM EET 6:36 PM EET
Moon 7:10 PM EET (12/30) 8:37 AM EET (12/30)
Length of Visible Light 10h 19m
Length of Day
9h 17m
Waning Gibbous, 96% of the Moon is Illuminated
Dec 30
Waning Gibbous
Jan 5
Last Quarter
Jan 11
New
Jan 19
First Quarter
Jan 27
Full

Hourly Weather History & Observations

Time (EET) Temp. Dew Point Humidity Pressure Visibility Wind Dir Wind Speed Gust Speed Precip Events Conditions
12:20 AM 41.0 °F 26.6 °F 57% 30.33 in - North - - N/A   Mostly Cloudy
12:50 AM 39.2 °F 28.4 °F 65% 30.33 in - North - - N/A   Mostly Cloudy
1:20 AM 39.2 °F 28.4 °F 65% 30.33 in - North - - N/A   Mostly Cloudy
1:50 AM 39.2 °F 28.4 °F 65% 30.33 in - North - - N/A   Mostly Cloudy
2:00 AM 40 °F 28 °F 50% 30.34 in 6 mi Calm Calm - -   Partly Cloudy
2:20 AM 39.2 °F 28.4 °F 65% 30.33 in - North - - N/A   Mostly Cloudy
2:50 AM 39.2 °F 26.6 °F 61% 30.33 in - North - - N/A   Mostly Cloudy
3:20 AM 39.2 °F 26.6 °F 61% 30.33 in - North - - N/A   Mostly Cloudy
3:50 AM 39.2 °F 26.6 °F 61% 30.33 in - North - - N/A   Mostly Cloudy
4:20 AM 39.2 °F 26.6 °F 61% 30.33 in - North - - N/A   Mostly Cloudy
4:50 AM 39.2 °F 28.4 °F 65% 30.33 in - North - - N/A   Mostly Cloudy
5:20 AM 39.2 °F 28.4 °F 65% 30.33 in - North - - N/A   Mostly Cloudy
5:50 AM 39.2 °F 30.2 °F 70% 30.33 in - North - - N/A   Mostly Cloudy
6:20 AM 39.2 °F 30.2 °F 70% 30.33 in - North - - N/A   Mostly Cloudy
6:50 AM 39.2 °F 30.2 °F 70% 30.33 in - North - - N/A   Mostly Cloudy
7:20 AM 39.2 °F 30.2 °F 70% 30.33 in - North - - N/A   Mostly Cloudy
7:50 AM 41.0 °F 28.4 °F 61% 30.33 in - North - - N/A   Mostly Cloudy
8:00 AM 41 °F 29 °F 50% 30.33 in 6 mi Calm Calm - -   Partly Cloudy
8:20 AM 41.0 °F 28.4 °F 61% 30.33 in - North - - N/A   Mostly Cloudy
8:50 AM 41.0 °F 26.6 °F 57% 30.33 in - North - - N/A   Mostly Cloudy
9:20 AM 41.0 °F 26.6 °F 57% 30.33 in - North - - N/A   Mostly Cloudy
9:50 AM 42.8 °F 26.6 °F 53% 30.33 in - North - - N/A   Mostly Cloudy
10:20 AM 42.8 °F 26.6 °F 53% 30.33 in - North - - N/A   Mostly Cloudy
10:50 AM 42.8 °F 33.8 °F 70% 30.33 in - North - - N/A   Mostly Cloudy
11:20 AM 42.8 °F 33.8 °F 70% 30.33 in - North - - N/A   Mostly Cloudy
11:50 AM 44.6 °F 33.8 °F 66% 30.33 in - North - - N/A   Mostly Cloudy
12:20 PM 44.6 °F 33.8 °F 66% 30.33 in - North - - N/A   Mostly Cloudy
12:50 PM 44.6 °F 32.0 °F 61% 30.30 in - North - - N/A   Mostly Cloudy
1:20 PM 44.6 °F 32.0 °F 61% 30.30 in - North - - N/A   Mostly Cloudy
1:50 PM 46.4 °F 35.6 °F 66% 30.30 in - North - - N/A   Mostly Cloudy
2:00 PM 46 °F 36 °F 57% 30.30 in 6 mi Calm Calm - -   Partly Cloudy
2:20 PM 46.4 °F 35.6 °F 66% 30.30 in - North - - N/A   Mostly Cloudy
2:50 PM 46.4 °F 35.6 °F 66% 30.27 in - North - - N/A   Scattered Clouds
3:20 PM 46.4 °F 35.6 °F 66% 30.27 in - North - - N/A   Scattered Clouds
3:50 PM 44.6 °F 33.8 °F 66% 30.27 in - North - - N/A   Scattered Clouds
4:20 PM 44.6 °F 33.8 °F 66% 30.27 in - North - - N/A   Scattered Clouds
4:50 PM 44.6 °F 32.0 °F 61% 30.27 in - North - - N/A   Scattered Clouds
5:20 PM 44.6 °F 32.0 °F 61% 30.27 in - North - - N/A   Scattered Clouds
5:50 PM 44.6 °F 32.0 °F 61% 30.27 in - North - - N/A   Mostly Cloudy
6:20 PM 44.6 °F 32.0 °F 61% 30.27 in - North - - N/A   Mostly Cloudy
6:50 PM 42.8 °F 32.0 °F 66% 30.27 in - North - - N/A   Mostly Cloudy
7:20 PM 42.8 °F 32.0 °F 66% 30.27 in - North - - N/A   Mostly Cloudy
7:50 PM 44.6 °F 33.8 °F 66% 30.30 in - North - - N/A   Mostly Cloudy
8:00 PM 44 °F 35 °F 59% 30.32 in 6 mi Calm Calm - -   Partly Cloudy
8:20 PM 44.6 °F 33.8 °F 66% 30.30 in - North - - N/A   Mostly Cloudy
8:50 PM 44.6 °F 35.6 °F 71% 30.30 in - North - - N/A   Mostly Cloudy
9:20 PM 44.6 °F 35.6 °F 71% 30.30 in - North - - N/A   Mostly Cloudy
9:50 PM 44.6 °F 32.0 °F 61% 30.30 in - North - - N/A   Scattered Clouds
10:20 PM 44.6 °F 32.0 °F 61% 30.30 in - North - - N/A   Scattered Clouds
10:50 PM 44.6 °F 32.0 °F 61% 30.30 in - North - - N/A   Scattered Clouds
11:20 PM 44.6 °F 32.0 °F 61% 30.30 in - North - - N/A   Scattered Clouds
11:50 PM 42.8 °F 32.0 °F 66% 30.30 in - North - - N/A   Scattered Clouds